Location: Unspecified
(0.0000°N, 0.0000°E)
Time: 11:33:24
(UTC+00:00)

Vanguard 2 - Pass Details

Date: 15 October 2022
Orbit: 553 x 2933 km, 32.9° (Epoch: 29 November)

Event Time Altitude Azimuth Distance (km) Brightness Sun altitude
Rises 20:51:43 0° 262° (W) 6,782 13.1 -45.8°
Reaches altitude 10° 20:58:29 10° 247° (WSW) 5,713 12.5 -47.5°
Maximum altitude 21:09:25 20° 207° (SSW) 4,545 11.6 -50.1°
Enters shadow 21:18:38 10° 165° (SSE) 4,704 11.5 -52.3°
